Weather History for Grand Island, NE

Change the Weather History Date:

Sunday, October 2, 2011

  Actual Average Record
Temperature  
Mean Temperature 64 °F 58 °F  
Max Temperature 82 °F 71 °F 95 °F (1938)
Min Temperature 45 °F 45 °F 30 °F (1999)
Degree Days  
Heating Degree Days 1 8  
Month to date heating degree days 4 16  
Since 1 July heating degree days 165 131  
Cooling Degree Days 0 1  
Month to date cooling degree days 0 2  
Year to date cooling degree days 1088 1025  
Growing Degree Days 13 (Base 50)    
Moisture  
Dew Point 36 °F    
Average Humidity 45    
Maximum Humidity 70    
Minimum Humidity 20    
Precipitation  
Precipitation 0.00 in 0.07 in 2.07 in (2013)
Month to date precipitation 0.00 0.14  
Year to date precipitation 23.64 23.14  
Snow  
Snow 0.00 in 0.00 in - ()
Month to date snowfall 0.0 0.0  
Since 1 July snowfall 0.0 0.1  
Since 1 September snowfall 0.0 0.1  
Snow Depth 0.00 in    
Sea Level Pressure  
Sea Level Pressure 30.14 in    
Wind  
Wind Speed 11 mph (South)    
Max Wind Speed 21 mph    
Max Gust Speed 28 mph    
Visibility 10 miles    
Events      
T = Trace of Precipitation, MM = Missing Value Source: NWS Daily Summary

Daily Weather History Graph

Daily Weather History Graph

Search for Another Location

Airport:

Trip Planner

Search our weather history database for the weather conditions in past years. The results will help you decide how hot, cold, wet, or windy it might be!

Date:

Astronomy

Oct. 02, 2011 Rise Set
Actual Time 7:30 AM CDT 7:13 PM CDT
Civil Twilight 7:03 AM CDT 7:41 PM CDT
Nautical Twilight 6:31 AM CDT 8:13 PM CDT
Astronomical Twilight 5:59 AM CDT 8:45 PM CDT
Moon 1:41 PM CDT (10/2) 11:11 PM CDT (10/2)
Length of Visible Light 12h 38m
Length of Day
11h 43m
Waxing Crescent, 35% of the Moon is Illuminated
Oct 2
Waxing Crescent
Oct 3
First Quarter
Oct 11
Full
Oct 19
Last Quarter
Oct 26
New

Hourly Weather History & Observations

Time (CDT) Temp. Windchill Dew Point Humidity Pressure Visibility Wind Dir Wind Speed Gust Speed Precip Events Conditions
12:53 AM 55.0 °F - 33.1 °F 43% 30.16 in 10.0 mi South 12.7 mph - N/A   Clear
1:53 AM 53.6 °F - 33.8 °F 47% 30.18 in 10.0 mi South 8.1 mph - N/A   Clear
2:53 AM 50.0 °F - 34.0 °F 54% 30.17 in 10.0 mi SSE 9.2 mph - N/A   Clear
3:53 AM 48.9 °F - 34.0 °F 56% 30.16 in 10.0 mi South 9.2 mph - N/A   Clear
4:53 AM 46.9 °F - 34.0 °F 61% 30.17 in 10.0 mi South 6.9 mph - N/A   Clear
5:53 AM 46.9 °F - 34.0 °F 61% 30.17 in 10.0 mi South 8.1 mph - N/A   Clear
6:53 AM 45.0 °F 41.8 °F 35.1 °F 68% 30.19 in 10.0 mi South 5.8 mph - N/A   Clear
7:53 AM 46.4 °F 43.5 °F 35.6 °F 66% 30.20 in 10.0 mi South 5.8 mph - N/A   Clear
8:53 AM 53.6 °F - 37.4 °F 54% 30.19 in 10.0 mi South 10.4 mph - N/A   Clear
9:53 AM 62.6 °F - 35.6 °F 37% 30.20 in 10.0 mi SSW 15.0 mph - N/A   Clear
10:53 AM 68.0 °F - 36.0 °F 31% 30.17 in 10.0 mi South 12.7 mph - N/A   Clear
11:53 AM 73.0 °F - 36.0 °F 26% 30.16 in 10.0 mi South 17.3 mph - N/A   Clear
12:53 PM 75.9 °F - 35.1 °F 23% 30.14 in 10.0 mi SSW 13.8 mph - N/A   Clear
1:53 PM 80.1 °F - 35.1 °F 20% 30.11 in 10.0 mi South 15.0 mph 21.9 mph N/A   Clear
2:53 PM 81.0 °F - 35.1 °F 19% 30.09 in 10.0 mi SSE 16.1 mph 24.2 mph N/A   Clear
3:53 PM 80.6 °F - 35.6 °F 20% 30.10 in 10.0 mi South 13.8 mph 24.2 mph N/A   Clear
4:53 PM 80.1 °F - 36.0 °F 20% 30.07 in 10.0 mi SSE 15.0 mph 21.9 mph N/A   Clear
5:53 PM 78.1 °F - 36.0 °F 22% 30.07 in 10.0 mi SSE 17.3 mph 20.7 mph N/A   Clear
6:53 PM 73.0 °F - 37.9 °F 28% 30.09 in 10.0 mi SSE 8.1 mph - N/A   Clear
7:53 PM 66.2 °F - 39.2 °F 37% 30.10 in 10.0 mi SSE 8.1 mph - N/A   Clear
8:53 PM 64.0 °F - 39.0 °F 40% 30.10 in 10.0 mi SE 8.1 mph - N/A   Clear
9:53 PM 63.0 °F - 37.0 °F 38% 30.09 in 10.0 mi SSE 11.5 mph - N/A   Clear
10:53 PM 61.0 °F - 36.0 °F 39% 30.10 in 10.0 mi SSE 11.5 mph - N/A   Clear
11:53 PM 59.0 °F - 35.6 °F 42% 30.12 in 10.0 mi SSE 11.5 mph - N/A   Clear